[[{"header":{"parameterUnit":"m.s-1","parameterCategory":1,"la1":30.2991,"la2":30.254,"lo1":-89.0895,"lo2":-89.0444,"dy":0.0017,"dx":0.0017,"nx":28,"ny":28,"refTime":"2024-04-06T09:00:00:Z","depth":0,"parameterNumber":2,"parameterNumberName":"U-component_of_WINDS"},"data":[0,0,0,0,0,0,0,0,0,0,0,0,0,0,0,0,0,0,0,0,0,0,0,0,0,0,0,0,0,0,0,0,0,0,0,0,0,0,0,0,0,0,0,0,0,0,0,0,0,0,0,0,0,0,0,0,0,0,-2.4269,-2.427,0,-2.4343,-2.4344,-2.4344,-2.4368,-2.4367,-2.4367,-2.4367,-2.4442,-2.4445,-2.4447,0,0,0,0,0,0,0,0,0,0,0,0,0,-2.415,-2.4152,-2.4269,-2.427,-2.4271,-2.4343,-2.4344,-2.4345,-2.4368,-2.4367,-2.4367,-2.4366,-2.4442,-2.4444,-2.4447,0,0,0,0,0,0,0,0,0,0,0,0,0,-2.421,-2.4152,-2.4269,-2.4291,-2.4294,-2.4342,-2.4344,-2.4345,-2.4368,-2.4367,-2.4367,-2.4366,-2.4441,-2.4444,-2.4448,-2.448,0,0,-2.4458,-2.446,0,0,0,0,0,0,0,0,-2.4207,-2.4215,-2.4287,-2.429,-2.4293,-2.4345,-2.4329,-2.439,-2.4368,-2.434,-2.4367,-2.4366,-2.4411,-2.4417,-2.4432,-2.4483,-2.4486,-2.4459,-2.4461,-2.4462,-2.4463,0,0,0,0,0,0,0,-2.4202,-2.4212,-2.4298,-2.4288,-2.4291,-2.4298,-2.4306,-2.4341,-2.4377,-2.4342,-2.4344,-2.4352,-2.4412,-2.4428,-2.4433,-2.4488,-2.4459,-2.4462,-2.4464,-2.4465,-2.457,-2.4571,0,0,0,0,0,0,-2.4194,-2.4208,-2.4296,-2.43,-2.4248,-2.43,-2.4309,-2.4329,-2.4377,-2.4384,-2.4353,-2.4353,-2.4422,-2.4429,-2.4436,-2.4477,-2.4462,-2.4466,-2.4468,-2.457,-2.457,-2.4571,0,0,0,0,0,0,-2.4192,-2.4202,-2.4293,-2.4255,-2.4267,-2.4303,-2.4325,-2.4331,-2.4347,-2.4385,-2.4391,-2.4362,-2.4422,-2.4431,-2.4469,-2.448,-2.4467,-2.447,-2.4569,-2.457,-2.4571,-2.4559,0,0,0,0,0,0,-2.4188,-2.4201,-2.4213,-2.4255,-2.4269,-2.4324,-2.4326,-2.4333,-2.4353,-2.4354,-2.4396,-2.4402,-2.4422,-2.4463,-2.4472,-2.4485,-2.4473,-2.4568,-2.4569,-2.457,-2.4558,-2.4559,-2.456,0,0,0,0,0,-2.4184,-2.4207,-2.4214,-2.4224,-2.4285,-2.4324,-2.4332,-2.4355,-2.4353,-2.4366,-2.4391,-2.4401,-2.4478,-2.4467,-2.4477,-2.4491,-2.4567,-2.4569,-2.457,-2.4558,-2.4559,-2.456,0,0,0,0,0,0,-2.4165,-2.4213,-2.4221,-2.4258,-2.4287,-2.4328,-2.4345,-2.4356,-2.4386,-2.4386,-2.4414,-2.4423,-2.4458,-2.4479,-2.4466,-2.4525,-2.4523,-2.4527,-2.451,-2.4511,-2.4512,-2.4506,-2.4476,0,0,0,0,0,-2.4165,-2.4193,-2.4234,-2.4262,-2.4277,-2.4308,-2.4326,-2.4342,-2.4373,-2.4386,-2.4413,-2.4443,-2.4474,-2.4494,-2.4525,-2.4562,-2.4571,-2.4576,-2.4577,-2.4578,-2.458,-2.4602,-2.4604,-2.4576,-2.4576,-2.4576,0,0,-2.4166,-2.4195,-2.4211,-2.4259,-2.4284,-2.4312,-2.4318,-2.4348,-2.437,-2.439,-2.4427,-2.4449,-2.4484,-2.4522,-2.454,-2.454,-2.459,-2.458,-2.458,-2.4582,-2.4604,-2.4606,-2.4608,-2.4577,-2.4577,-2.4577,0,0,-2.4182,-2.4207,-2.4233,-2.4258,-2.4295,-2.4316,-2.4323,-2.4363,-2.4378,-2.4415,-2.4431,-2.4458,-2.4511,-2.4536,-2.4555,-2.4582,-2.4592,-2.4591,-2.4596,-2.4616,-2.4618,-2.462,-2.463,-2.4633,-2.4594,-2.4594,-2.4594,0,-2.4178,-2.4221,-2.4246,-2.4275,-2.4296,-2.4316,-2.4344,-2.4366,-2.4412,-2.4426,-2.4425,-2.4493,-2.4518,-2.4562,-2.4568,-2.4584,-2.4592,-2.4586,-2.4616,-2.4618,-2.4621,-2.463,-2.4633,-2.4594,-2.4594,-2.4594,-2.4594,0,-2.4215,-2.4245,-2.4262,-2.4305,-2.4328,-2.4356,-2.4386,-2.4406,-2.442,-2.4441,-2.448,-2.4512,-2.4549,-2.4561,-2.4575,-2.4607,-2.4606,-2.461,-2.4609,-2.4622,-2.4632,-2.4635,-2.4593,-2.4593,-2.4593,-2.4593,0,0,-2.4219,-2.4276,-2.4282,-2.4302,-2.4345,-2.4369,-2.4399,-2.4436,-2.4453,-2.4484,-2.4509,-2.4554,-2.4559,-2.4581,-2.4598,-2.4617,-2.4636,-2.4619,-2.462,-2.4621,-2.4673,-2.4669,-2.4673,-2.4643,-2.4644,-2.4645,-2.467,0,-2.424,-2.4293,-2.4317,-2.4359,-2.4388,-2.4408,-2.4434,-2.4463,-2.4484,-2.4512,-2.4536,-2.4567,-2.4571,-2.4585,-2.4604,-2.4629,-2.4646,-2.4628,-2.4667,-2.4669,-2.4657,-2.4677,-2.4673,-2.4695,-2.4674,-2.4675,-2.4675,0,-2.4271,-2.4302,-2.4347,-2.4387,-2.44,-2.4423,-2.4459,-2.4485,-2.4519,-2.4533,-2.4559,-2.4575,-2.4608,-2.4605,-2.4651,-2.4638,-2.4656,-2.4671,-2.4672,-2.4676,-2.4672,-2.4681,-2.4703,-2.4706,-2.4681,-2.468,-2.468,0,-2.4269,-2.4322,-2.4356,-2.4373,-2.4421,-2.4436,-2.4457,-2.4491,-2.4512,-2.4544,-2.4557,-2.4593,-2.4612,-2.4639,-2.4665,-2.4661,-2.4708,-2.4708,-2.4721,-2.472,-2.4729,-2.4728,-2.4753,-2.4742,-2.4742,-2.4742,-2.4742,0,-2.4289,-2.4316,-2.4356,-2.4377,-2.4408,-2.4436,-2.4466,-2.4488,-2.4518,-2.4544,-2.4564,-2.4588,-2.4622,-2.465,-2.4671,-2.4705,-2.4714,-2.4727,-2.4732,-2.4724,-2.4723,-2.4736,-2.4735,-2.4743,-2.4743,-2.4743,-2.4742,0,-2.4292,-2.432,-2.4359,-2.4401,-2.4412,-2.4433,-2.447,-2.4491,-2.4514,-2.4546,-2.4556,-2.4591,-2.4626,-2.4655,-2.47,-2.4714,-2.475,-2.4757,-2.4738,-2.4741,-2.4753,-2.4751,-2.4786,-2.4792,-2.4777,-2.4778,-2.4778,0,-2.4303,-2.4324,-2.4369,-2.4387,-2.4408,-2.4438,-2.4459,-2.4487,-2.4509,-2.455,-2.4567,-2.4603,-2.4633,-2.4688,-2.4718,-2.4753,-2.476,-2.477,-2.4766,-2.4758,-2.476,-2.4758,-2.476,-2.477,-2.477,-2.477,-2.477,0,-2.4319,-2.4332,-2.4361,-2.4397,-2.4422,-2.4451,-2.448,-2.4495,-2.4529,-2.4552,-2.4588,-2.4611,-2.4658,-2.4694,-2.4732,-2.4754,-2.4768,-2.4772,-2.4777,-2.4769,-2.4757,-2.4764,-2.4739,-2.4771,-2.4771,-2.4771,-2.4771,-2.4771,-2.4326,-2.4345,-2.438,-2.4413,-2.4438,-2.4465,-2.4488,-2.4513,-2.4543,-2.4583,-2.4599,-2.4635,-2.467,-2.4723,-2.4745,-2.4775,-2.4776,-2.4784,-2.4785,-2.4786,-2.4785,-2.4753,-2.4782,-2.4782,-2.4782,-2.4782,-2.4782,0,-2.4342,-2.4366,-2.4396,-2.4436,-2.4462,-2.4473,-2.4507,-2.4528,-2.4559,-2.4591,-2.462,-2.4661,-2.4696,-2.473,-2.4767,-2.4784,-2.4791,-2.4793,-2.4791,-2.4796,-2.4782,-2.4774,-2.4786,-2.4786,-2.4786,-2.4786,-2.4786,-2.4786,-2.4354,-2.4388,-2.4405,-2.4452,-2.4476,-2.4511,-2.453,-2.4555,-2.458,-2.4625,-2.4654,-2.4676,-2.4708,-2.4748,-2.478,-2.4789,-2.4802,-2.4801,-2.4812,-2.4798,-2.4797,-2.4796,-2.4789,-2.4804,-2.4804,-2.4824,-2.4824,-2.4824]},{"header":{"parameterUnit":"m.s-1","parameterCategory":1,"la1":30.2991,"la2":30.254,"lo1":-89.0895,"lo2":-89.0444,"dy":0.0017,"dx":0.0017,"nx":28,"ny":28,"refTime":"2024-04-06T09:00:00:Z","depth":0,"parameterNumber":3,"parameterNumberName":"V-component_of_WINDS"},"data":[0,0,0,0,0,0,0,0,0,0,0,0,0,0,0,0,0,0,0,0,0,0,0,0,0,0,0,0,0,0,0,0,0,0,0,0,0,0,0,0,0,0,0,0,0,0,0,0,0,0,0,0,0,0,0,0,0,0,4.824,4.824,0,4.826,4.826,4.826,4.8253,4.8252,4.8252,4.8251,4.8269,4.827,4.8271,0,0,0,0,0,0,0,0,0,0,0,0,0,4.8192,4.8193,4.824,4.824,4.824,4.826,4.826,4.826,4.8253,4.8252,4.8252,4.8251,4.8269,4.827,4.8271,0,0,0,0,0,0,0,0,0,0,0,0,0,4.8213,4.8193,4.824,4.8239,4.8239,4.826,4.826,4.826,4.8253,4.8252,4.8252,4.8251,4.8269,4.827,4.8271,4.8293,0,0,4.8275,4.8276,0,0,0,0,0,0,0,0,4.8211,4.8214,4.8239,4.8239,4.8239,4.8253,4.825,4.8271,4.8253,4.8248,4.8251,4.8251,4.8264,4.8266,4.8271,4.8294,4.8294,4.8275,4.8276,4.8277,4.8277,0,0,0,0,0,0,0,4.821,4.8213,4.8248,4.8239,4.8239,4.8237,4.8239,4.8254,4.8259,4.8248,4.8248,4.825,4.8264,4.827,4.8271,4.8295,4.8275,4.8276,4.8277,4.8278,4.8337,4.8337,0,0,0,0,0,0,4.8209,4.8212,4.8247,4.8248,4.8223,4.8238,4.8241,4.8249,4.8259,4.826,4.8251,4.825,4.8268,4.827,4.8272,4.8298,4.8277,4.8278,4.8279,4.8336,4.8337,4.8338,0,0,0,0,0,0,4.8208,4.8212,4.8246,4.823,4.8234,4.824,4.825,4.825,4.8256,4.8261,4.8262,4.8256,4.8267,4.827,4.8288,4.8299,4.8279,4.828,4.8335,4.8336,4.8337,4.8351,0,0,0,0,0,0,4.8207,4.8212,4.8221,4.823,4.8235,4.8263,4.825,4.8251,4.8258,4.8257,4.8266,4.8267,4.8267,4.8286,4.8289,4.83,4.8281,4.8334,4.8336,4.8337,4.835,4.8353,4.8355,0,0,0,0,0,4.8205,4.8223,4.8221,4.8225,4.8247,4.8263,4.8266,4.8267,4.8259,4.8268,4.8272,4.8266,4.8297,4.8288,4.8292,4.8303,4.8333,4.8335,4.8337,4.8349,4.8352,4.8355,0,0,0,0,0,0,4.8213,4.8224,4.8222,4.8244,4.8253,4.8262,4.8273,4.827,4.828,4.8279,4.8278,4.8281,4.8299,4.8303,4.8292,4.8325,4.8314,4.8317,4.8322,4.8325,4.8328,4.8327,4.8282,0,0,0,0,0,4.8217,4.8231,4.824,4.8258,4.8263,4.8267,4.8274,4.8275,4.8283,4.8286,4.8291,4.8299,4.8311,4.8318,4.8329,4.8351,4.8352,4.836,4.8363,4.8365,4.8367,4.8379,4.8383,4.8343,4.8343,4.8343,0,0,4.8226,4.8234,4.8243,4.826,4.8267,4.828,4.827,4.8285,4.8294,4.8288,4.8306,4.831,4.8319,4.8339,4.8348,4.8342,4.8379,4.8367,4.8369,4.837,4.8381,4.8385,4.8388,4.8345,4.8344,4.8344,0,0,4.825,4.8257,4.8274,4.8281,4.8292,4.8295,4.8299,4.8309,4.8312,4.833,4.8326,4.8337,4.8356,4.8363,4.8369,4.8396,4.8392,4.8399,4.8413,4.8425,4.8428,4.8431,4.8441,4.8444,4.8401,4.8402,4.8402,0,4.8259,4.828,4.8282,4.8298,4.8305,4.8302,4.8318,4.8325,4.8338,4.8343,4.8338,4.8363,4.8368,4.839,4.8397,4.8402,4.8406,4.8398,4.8428,4.843,4.8433,4.8442,4.8446,4.8402,4.8402,4.8402,4.8402,0,4.8292,4.8306,4.8318,4.8333,4.8342,4.8358,4.8361,4.837,4.837,4.8373,4.8391,4.8398,4.841,4.8415,4.8414,4.8437,4.8434,4.8428,4.8417,4.8438,4.8446,4.845,4.8404,4.8403,4.8403,4.8403,0,0,4.832,4.8337,4.8341,4.8348,4.836,4.8371,4.8386,4.84,4.8407,4.8417,4.843,4.8447,4.8442,4.8449,4.8448,4.8459,4.848,4.8451,4.8452,4.8457,4.8506,4.851,4.8514,4.8477,4.8478,4.8479,4.8505,0,4.8344,4.8373,4.8376,4.8401,4.8415,4.8412,4.8425,4.8434,4.8438,4.8449,4.8452,4.8465,4.8457,4.8461,4.8471,4.8475,4.849,4.8473,4.8489,4.8489,4.8487,4.8519,4.8523,4.8548,4.8508,4.8509,4.8509,0,4.8377,4.8389,4.8416,4.8428,4.8433,4.8445,4.8458,4.8469,4.8479,4.8481,4.8489,4.8488,4.8503,4.8492,4.8513,4.8502,4.8508,4.8511,4.8512,4.8513,4.8501,4.8521,4.8556,4.856,4.8515,4.8514,4.8514,0,4.8395,4.8418,4.8438,4.8444,4.8457,4.8466,4.8472,4.8481,4.8489,4.85,4.8505,4.8517,4.8523,4.8532,4.8534,4.8526,4.8555,4.8544,4.8557,4.8557,4.8563,4.8562,4.8599,4.8567,4.8567,4.8567,4.8567,0,4.8422,4.8439,4.8446,4.8458,4.8477,4.8479,4.8497,4.8502,4.8511,4.8523,4.8521,4.8532,4.8534,4.8545,4.8546,4.8564,4.8566,4.8568,4.8568,4.8569,4.8568,4.8573,4.8571,4.8568,4.8567,4.8567,4.8567,0,4.8446,4.8451,4.8473,4.8484,4.8487,4.8501,4.851,4.8521,4.8525,4.8541,4.8544,4.855,4.8564,4.8566,4.8582,4.8583,4.8604,4.8602,4.8601,4.8601,4.8613,4.8612,4.8654,4.866,4.8624,4.8624,4.8624,0,4.8463,4.8476,4.849,4.8499,4.8505,4.8519,4.8528,4.8531,4.854,4.8552,4.8562,4.8576,4.8587,4.8608,4.8613,4.8625,4.8624,4.8638,4.8626,4.8626,4.8625,4.8624,4.8625,4.864,4.8641,4.8641,4.8641,0,4.8493,4.8495,4.8509,4.8523,4.8534,4.8545,4.8556,4.8563,4.8567,4.8577,4.8592,4.8601,4.8618,4.8631,4.8643,4.8648,4.8645,4.8645,4.8649,4.8649,4.8648,4.8649,4.8607,4.8644,4.8644,4.8644,4.8643,4.8643,4.8514,4.8526,4.8538,4.8553,4.8561,4.8572,4.8583,4.8589,4.8602,4.8616,4.8617,4.8633,4.8642,4.8659,4.8665,4.8677,4.8672,4.8677,4.8679,4.868,4.8682,4.8646,4.8679,4.8679,4.8679,4.8679,4.8678,0,4.8544,4.8552,4.8566,4.8582,4.8594,4.8591,4.8603,4.8613,4.8627,4.8637,4.8648,4.8665,4.8679,4.8685,4.8698,4.8706,4.8705,4.871,4.8709,4.871,4.8685,4.868,4.871,4.871,4.871,4.871,4.871,4.871,4.8561,4.8582,4.8586,4.861,4.8617,4.8634,4.8641,4.865,4.8658,4.8678,4.8689,4.8694,4.8702,4.8716,4.8727,4.8729,4.8734,4.8739,4.874,4.8715,4.8712,4.8709,4.8705,4.874,4.874,4.8764,4.8765,4.8765]}]]